SCP
0 0 0 0 0 0 0 0 0 0 0 0 -0 0 0 -0 0 0 0 0 0 0 0 0 0 0 1 0 0 0 0 0 0 0 0 0 0 0 0 0 0 0 0
0 0 0 0 0 0 0 0 0 0 0 -0 0 0 0 0 0 -0 0 0 0 0 0 0 0 0 0 0 0 0 0 0 0 0 0 0 0 0 0 0 0 0 0
0 0 0 0 0 0 0 0 0 0 0 0 0 0 0 0 0 0 0 -0 -0 0 0 0 0 1 1 0 0 0 0 0 0 0 0 0 0 0 0 0 0 0 0
0 0 0 0 0 0 0 0 0 0 0 0 0 0 0 0 0 0 0 -0 0 0 0 -0 0 0 0 0 0 0 0 0 0 0 0 0 0 0 0 0 0 0 0
0 0 0 0 0 0 0 0 0 0 0 0 0 0 0 0 0 0 0 0 0 0 0 0 0 0 0 0 0 0 -0 0 0 0 0 0 0 0 0 0 0 0 0
0 0 0 0 0 0 0 0 0 0 0 0 0 0 0 0 -0 0 0 0 0 0 0 0 0 0 0 0 0 -0 0 0 0 0 0 0 0 0 0 0 0 0 0
0 0 0 0 0 0 0 0 0 0 0 0 -0 0 0 0 0 -0 -0 0 0 0 0 0 0 0 0 0 0 0 0 0 0 0 0 0 0 0 0 0 0 0 0
0 0 0 0 0 0 0 0 0 0 0 0 -0 -0 0 0 0 0 0 0 0 0 0 0 0 0 0 0 0 0 0 0 0 0 0 0 0 0 0 0 0 0 0
0 0 0 0 0 0 0 0 0 0 0 0 -0 -0 -0 0 0 0 0 0 0 0 0 0 0 0 0 0 0 0 0 0 0 0 0 0 0 0 0 0 0 0 0
0 0 0 0 0 0 0 0 0 0 0 0 0 -0 -0 -0 -0 0 0 0 0 0 0 0 0 0 0 0 0 0 0 0 0 0 0 0 0 0 0 0 0 0 0
0 0 0 0 0 0 0 0 0 0 0 0 0 -0 0 -0 -0 -0 0 0 0 0 0 0 0 0 0 0 0 0 0 0 0 0 0 0 0 0 0 0 0 0 0
0 0 0 0 0 0 0 0 0 0 0 0 0 -0 -0 0 0 -0 0 0 0 0 0 0 0 0 0 0 0 0 0 0 0 0 0 0 0 0 0 0 0 0 0
0 0 0 0 0 0 0 0 0 0 0 0 -0 -0 -0 0 -0 -0 0 0 0 0 0 0 0 0 0 -0 0 0 0 0 0 0 0 0 0 0 0 0 0 0 0
0 0 0 0 0 0 0 0 0 0 0 0 0 0 -0 0 0 0 0 0 0 0 0 0 0 0 0 0 0 0 0 0 0 0 0 0 0 0 0 0 0 0 0
0 0 0 0 0 0 0 0 0 0 0 0 0 -0 -0 0 0 0 0 0 0 0 0 0 0 0 0 0 0 0 0 0 0 0 0 0 0 0 0 0 0 0 0
0 0 0 0 0 0 0 0 0 0 0 0 0 0 0 0 0 0 0 0 0 0 0 0 0 0 0 0 0 0 0 0 0 0 0 0 0 0 0 0 0 0 0
0 0 0 0 0 0 0 0 0 0 0 0 0 0 -0 0 0 0 0 0 0 0 0 0 0 0 0 0 0 0 0 0 0 0 0 0 0 0 0 0 0 0 0
0 0 0 0 0 0 0 0 0 0 0 0 0 0 -0 0 0 0 0 0 0 0 0 0 0 0 0 0 0 0 0 0 0 0 0 0 0 0 0 0 0 0 0
0 0 0 0 0 0 0 0 0 0 0 0 0 0 -0 -0 -0 0 0 0 0 0 0 0 0 0 0 0 0 0 0 0 0 0 0 0 0 0 0 0 0 0 0
0 0 0 0 0 0 0 0 0 0 0 0 0 0 0 -0 -0 -0 0 0 0 0 0 0 0 0 0 0 0 0 0 0 0 0 0 0 0 0 0 0 0 0 0
0 0 0 0 0 0 0 0 0 0 0 0 0 0 0 -0 -0 -0 0 0 0 0 0 0 0 0 0 0 0 0 0 0 0 0 0 0 0 0 0 0 0 0 0
0 0 0 0 0 0 0 0 0 0 0 0 0 0 0 -0 -0 -0 -0 0 0 0 0 0 0 0 0 0 0 0 0 0 0 0 0 0 0 0 0 0 0 0 0
0 0 0 0 0 0 0 0 0 0 0 0 0 0 0 -0 -0 -0 -0 0 0 0 0 0 0 0 0 0 0 0 0 0 0 0 0 0 0 0 0 0 0 0 0
0 0 0 0 0 0 0 0 0 0 0 0 0 0 0 -0 -0 -0 -0 -0 0 0 0 0 0 0 0 0 0 0 0 0 0 0 0 0 0 0 0 0 0 0 0
0 0 0 0 0 0 0 0 0 0 0 0 0 0 0 -0 -0 -0 -0 -0 0 0 0 0 0 0 0 0 0 0 0 0 0 0 0 0 0 0 0 0 0 0 0
0 0 0 0 0 0 0 0 0 0 0 0 0 0 0 -0 -0 -0 -0 -0 -0 0 0 0 0 0 0 0 0 0 0 0 0 0 0 0 0 0 0 0 0 0 0
Wind_Speed_500mb
75 78 77 79 79 78 79 80 82 86 80 75 76 62 56 60 56 56 42 47 56 52 62 53 68 91 148 115 101 92 80 69 67 65 56 56 48 44 37 34 24 21 16
74 75 75 74 76 77 77 78 81 85 86 74 78 63 48 47 47 49 38 49 53 49 46 62 60 74 111 109 102 88 77 72 58 64 59 55 46 40 37 33 25 23 16
71 71 71 70 71 75 75 77 78 79 85 77 78 63 44 40 42 37 29 37 44 52 33 45 27 95 120 102 87 86 80 60 67 67 57 48 43 38 32 26 25 16 14
67 66 67 67 68 71 74 76 81 81 86 82 87 72 38 33 41 34 31 27 30 51 47 39 47 8 74 78 79 78 70 67 72 70 56 39 36 31 28 23 23 17 11
66 63 63 65 65 67 72 75 76 78 85 85 86 72 34 30 47 39 35 33 27 34 49 27 28 21 49 71 64 64 70 81 78 62 41 36 35 32 25 21 14 10 8
63 64 59 58 64 66 69 73 77 75 76 80 82 72 39 26 47 53 51 34 28 23 37 41 31 13 7 69 64 73 81 80 63 46 41 35 37 31 26 23 18 14 11
63 64 61 61 60 64 67 69 74 77 76 84 80 86 57 19 56 52 61 55 28 14 16 34 43 42 15 52 64 79 78 68 53 45 43 37 40 32 28 21 18 16 14
59 59 61 58 59 60 63 66 71 77 73 74 68 52 50 55 54 48 59 63 56 31 19 24 23 37 56 34 54 78 79 70 62 58 52 47 37 28 20 13 10 9 5
60 56 52 51 52 55 61 63 67 70 72 67 64 57 37 32 61 48 46 58 63 54 30 16 17 30 40 55 48 74 70 67 65 66 58 46 34 22 15 10 5 6 6
55 54 48 47 46 48 54 58 59 63 64 62 66 60 52 53 34 34 51 54 55 52 43 26 19 21 26 33 59 66 75 72 76 68 56 44 28 20 13 9 5 3 5
50 49 46 42 40 39 45 52 54 57 58 54 57 62 64 63 57 41 40 66 54 52 42 32 25 12 18 19 26 50 78 88 76 56 41 30 19 9 7 6 4 1 3
48 45 43 41 37 37 39 45 49 50 54 51 49 55 59 60 64 52 54 55 48 47 40 34 28 20 15 12 14 17 21 32 33 30 23 17 11 6 4 11 13 14 15
49 46 46 41 36 34 36 40 45 45 48 50 51 53 54 61 58 50 43 52 45 40 38 34 27 20 17 12 9 3 4 4 1 2 5 8 9 8 9 11 16 17 17
48 47 45 42 38 34 34 36 40 42 43 47 48 51 56 61 62 56 49 44 42 24 37 37 25 21 16 14 15 13 10 9 8 8 7 9 11 14 15 15 17 15 9
44 43 42 39 36 33 32 34 36 39 41 44 47 51 55 57 62 58 54 41 32 22 24 26 25 20 14 12 13 13 13 12 9 7 8 8 7 5 9 15 9 2 2
40 40 39 38 34 33 33 32 33 36 40 41 44 49 53 56 64 63 60 50 31 26 13 23 22 16 11 8 10 11 14 14 12 10 4 11 5 4 2 3 4 1 4
38 38 38 36 35 35 38 36 33 34 38 40 41 47 50 53 60 68 67 57 40 25 21 17 15 13 9 9 6 6 7 6 8 9 9 5 4 7 12 10 8 5 7
37 37 36 34 33 34 38 39 37 33 36 38 40 44 47 52 57 63 69 61 48 26 20 17 14 9 5 4 7 5 8 7 6 6 5 4 2 7 11 10 9 8 8
36 36 34 32 32 35 40 43 40 30 30 34 39 41 46 49 56 65 67 63 52 35 19 14 11 9 3 4 5 5 6 7 6 5 5 10 11 14 14 11 9 9 8
36 36 35 32 32 34 41 47 40 28 26 30 32 36 42 44 52 61 63 61 53 42 26 16 9 7 4 4 8 7 7 6 4 3 1 8 14 16 11 13 13 11 11
33 35 33 30 29 34 46 45 41 33 27 27 27 31 35 37 41 48 54 54 50 46 34 23 19 13 10 5 8 12 11 7 6 5 6 7 14 17 14 12 10 11 10
31 33 32 31 30 35 39 44 41 37 31 28 28 27 31 35 36 44 49 46 45 40 37 30 21 19 16 10 1 3 11 11 9 9 9 12 20 16 17 14 16 15 14
28 30 32 32 32 34 39 46 46 38 30 27 26 27 28 32 33 41 46 45 47 38 33 25 22 23 17 11 8 5 7 10 6 10 10 18 24 17 18 16 24 20 18
25 29 32 34 34 35 38 43 45 35 26 24 24 24 27 29 33 38 41 44 48 44 37 33 27 23 17 11 4 4 7 6 14 16 11 24 28 21 20 20 24 22 18
23 27 32 33 35 35 38 45 45 37 29 21 17 19 22 24 31 33 34 41 44 46 41 33 29 20 16 13 12 9 9 16 23 16 9 29 31 27 22 28 28 20 19
20 26 29 35 38 37 40 45 45 42 35 21 13 14 17 22 25 30 33 36 39 44 41 32 26 24 23 17 11 5 5 12 15 11 17 37 37 35 30 29 25 20 17
Wind_Direction_500mb
355 354 353 351 350 351 350 348 347 346 342 345 344 329 319 312 321 318 313 336 326 307 285 280 289 229 209 196 189 189 189 191 194 197 199 200 207 203 197 201 183 195 200
354 352 351 351 349 351 351 350 350 349 347 344 346 340 329 320 328 321 322 329 336 328 298 294 285 227 184 183 181 185 185 190 190 188 190 195 198 198 201 201 184 199 202
352 351 349 352 353 351 351 350 351 352 350 349 347 342 327 337 331 336 348 321 326 348 331 317 11 205 183 177 176 181 180 183 183 184 188 191 198 209 200 202 185 189 199
350 349 349 352 353 353 352 351 352 354 355 355 351 345 329 345 343 337 352 356 326 339 7 335 313 42 167 169 175 176 176 179 180 181 180 188 203 206 195 193 186 187 205
349 349 349 350 353 353 353 352 354 358 358 356 357 355 349 31 13 352 350 348 327 330 8 356 339 308 190 174 176 179 177 172 175 175 189 207 204 190 188 179 158 181 185
349 345 348 352 353 354 354 354 355 0 4 0 360 3 19 23 17 14 6 1 354 325 344 26 12 342 167 179 177 175 168 166 168 165 175 189 183 179 174 164 167 183 199
346 341 347 351 356 355 356 355 356 360 5 6 4 5 17 355 4 19 7 14 1 2 344 356 39 44 132 150 178 174 169 170 167 155 164 164 160 160 159 167 181 207 233
344 341 341 347 352 355 355 356 359 360 3 11 6 0 353 359 12 10 1 10 18 357 322 316 15 14 41 117 187 169 166 163 158 150 150 151 156 154 155 168 190 190 222
344 339 339 342 349 354 357 358 359 3 1 8 20 9 349 344 345 355 2 359 9 8 9 354 321 334 18 57 114 164 165 158 148 147 145 148 146 148 157 169 176 185 233
343 340 340 340 346 352 355 358 359 2 4 5 11 18 15 1 347 321 348 4 15 3 12 24 28 309 345 20 64 135 155 147 140 139 145 145 142 131 113 123 136 158 247
345 344 344 340 339 350 354 356 358 2 7 6 9 11 14 10 2 349 337 351 5 8 10 22 33 20 306 339 37 84 116 131 141 141 141 137 139 129 107 86 106 304 295
351 350 350 345 341 346 351 355 358 1 5 7 9 12 15 5 2 356 347 347 352 3 8 15 38 48 47 49 31 35 69 102 117 118 117 118 126 147 218 270 293 304 328
354 356 358 352 347 345 347 351 355 359 3 9 12 11 15 15 12 4 355 350 345 359 8 13 25 40 43 49 99 106 311 298 116 154 182 168 189 224 254 275 283 305 322
354 357 358 352 349 347 344 346 351 358 2 8 13 17 17 15 17 17 5 356 351 349 4 18 26 39 42 48 65 98 136 140 161 176 197 223 234 242 249 271 294 307 326
356 359 356 355 352 347 344 345 347 354 359 6 13 15 15 13 18 21 17 12 359 332 345 7 20 33 41 65 72 84 105 116 120 145 173 191 213 240 272 269 278 276 307
0 360 358 355 356 351 348 346 346 350 358 4 12 13 15 12 16 21 19 16 11 352 324 352 15 17 43 71 89 90 87 84 77 74 122 164 145 39 1 173 177 155 27
5 5 2 360 0 358 352 350 351 347 356 2 11 14 11 15 9 16 18 16 13 4 353 353 6 6 27 55 79 91 93 78 58 47 46 82 77 96 102 115 103 67 38
9 11 7 6 6 2 356 355 352 349 351 360 7 13 9 14 11 13 15 15 13 9 350 341 346 336 335 75 80 89 105 101 96 78 54 73 171 147 136 100 80 54 34
16 14 11 13 10 6 360 1 355 354 354 359 7 10 10 12 14 11 12 12 14 16 8 346 347 357 304 188 169 166 128 133 127 102 74 70 123 118 121 111 86 62 64
21 16 16 17 14 5 8 359 360 353 355 1 7 10 10 12 16 10 9 9 14 21 21 20 11 14 26 190 205 215 211 208 190 197 146 90 127 125 119 96 73 65 84
27 23 19 18 16 7 18 357 1 358 350 354 3 11 12 13 17 10 11 9 13 22 30 41 43 46 47 80 212 217 212 201 195 191 191 153 147 130 108 92 82 98 99
30 26 23 21 16 9 17 359 4 360 353 348 350 9 8 12 11 15 15 16 16 17 27 34 41 47 47 51 65 188 203 174 160 160 180 165 139 121 111 101 94 102 91
33 30 24 20 17 10 24 358 355 357 354 348 349 357 11 13 7 21 13 17 19 24 28 24 33 42 41 39 45 113 155 173 194 150 160 148 139 122 116 107 110 102 82
34 28 25 20 18 13 17 7 5 2 358 350 350 356 7 9 15 16 12 19 22 23 24 24 28 31 27 29 86 161 181 192 136 131 149 139 133 120 108 102 114 107 87
40 30 24 20 18 15 8 10 5 7 5 355 355 356 7 9 25 18 12 16 21 23 24 28 29 26 29 42 61 74 118 164 133 130 149 148 128 112 105 114 113 99 83
42 35 25 23 19 17 9 13 8 9 13 15 15 10 11 22 22 22 19 19 19 19 19 22 30 32 33 30 30 42 108 168 156 135 158 130 129 116 103 112 111 102 88
Wind_Speed_850mb
75 78 77 79 79 78 79 80 82 86 80 75 76 62 56 60 56 56 42 47 56 52 62 53 68 91 148 115 101 92 80 69 67 65 56 56 48 44 37 34 24 21 16
74 75 75 74 76 77 77 78 81 85 86 74 78 63 48 47 47 49 38 49 53 49 46 62 60 74 111 109 102 88 77 72 58 64 59 55 46 40 37 33 25 23 16
71 71 71 70 71 75 75 77 78 79 85 77 78 63 44 40 42 37 29 37 44 52 33 45 27 95 120 102 87 86 80 60 67 67 57 48 43 38 32 26 25 16 14
67 66 67 67 68 71 74 76 81 81 86 82 87 72 38 33 41 34 31 27 30 51 47 39 47 8 74 78 79 78 70 67 72 70 56 39 36 31 28 23 23 17 11
66 63 63 65 65 67 72 75 76 78 85 85 86 72 34 30 47 39 35 33 27 34 49 27 28 21 49 71 64 64 70 81 78 62 41 36 35 32 25 21 14 10 8
63 64 59 58 64 66 69 73 77 75 76 80 82 72 39 26 47 53 51 34 28 23 37 41 31 13 7 69 64 73 81 80 63 46 41 35 37 31 26 23 18 14 11
63 64 61 61 60 64 67 69 74 77 76 84 80 86 57 19 56 52 61 55 28 14 16 34 43 42 15 52 64 79 78 68 53 45 43 37 40 32 28 21 18 16 14
59 59 61 58 59 60 63 66 71 77 73 74 68 52 50 55 54 48 59 63 56 31 19 24 23 37 56 34 54 78 79 70 62 58 52 47 37 28 20 13 10 9 5
60 56 52 51 52 55 61 63 67 70 72 67 64 57 37 32 61 48 46 58 63 54 30 16 17 30 40 55 48 74 70 67 65 66 58 46 34 22 15 10 5 6 6
55 54 48 47 46 48 54 58 59 63 64 62 66 60 52 53 34 34 51 54 55 52 43 26 19 21 26 33 59 66 75 72 76 68 56 44 28 20 13 9 5 3 5
50 49 46 42 40 39 45 52 54 57 58 54 57 62 64 63 57 41 40 66 54 52 42 32 25 12 18 19 26 50 78 88 76 56 41 30 19 9 7 6 4 1 3
48 45 43 41 37 37 39 45 49 50 54 51 49 55 59 60 64 52 54 55 48 47 40 34 28 20 15 12 14 17 21 32 33 30 23 17 11 6 4 11 13 14 15
49 46 46 41 36 34 36 40 45 45 48 50 51 53 54 61 58 50 43 52 45 40 38 34 27 20 17 12 9 3 4 4 1 2 5 8 9 8 9 11 16 17 17
48 47 45 42 38 34 34 36 40 42 43 47 48 51 56 61 62 56 49 44 42 24 37 37 25 21 16 14 15 13 10 9 8 8 7 9 11 14 15 15 17 15 9
44 43 42 39 36 33 32 34 36 39 41 44 47 51 55 57 62 58 54 41 32 22 24 26 25 20 14 12 13 13 13 12 9 7 8 8 7 5 9 15 9 2 2
40 40 39 38 34 33 33 32 33 36 40 41 44 49 53 56 64 63 60 50 31 26 13 23 22 16 11 8 10 11 14 14 12 10 4 11 5 4 2 3 4 1 4
38 38 38 36 35 35 38 36 33 34 38 40 41 47 50 53 60 68 67 57 40 25 21 17 15 13 9 9 6 6 7 6 8 9 9 5 4 7 12 10 8 5 7
37 37 36 34 33 34 38 39 37 33 36 38 40 44 47 52 57 63 69 61 48 26 20 17 14 9 5 4 7 5 8 7 6 6 5 4 2 7 11 10 9 8 8
36 36 34 32 32 35 40 43 40 30 30 34 39 41 46 49 56 65 67 63 52 35 19 14 11 9 3 4 5 5 6 7 6 5 5 10 11 14 14 11 9 9 8
36 36 35 32 32 34 41 47 40 28 26 30 32 36 42 44 52 61 63 61 53 42 26 16 9 7 4 4 8 7 7 6 4 3 1 8 14 16 11 13 13 11 11
33 35 33 30 29 34 46 45 41 33 27 27 27 31 35 37 41 48 54 54 50 46 34 23 19 13 10 5 8 12 11 7 6 5 6 7 14 17 14 12 10 11 10
31 33 32 31 30 35 39 44 41 37 31 28 28 27 31 35 36 44 49 46 45 40 37 30 21 19 16 10 1 3 11 11 9 9 9 12 20 16 17 14 16 15 14
28 30 32 32 32 34 39 46 46 38 30 27 26 27 28 32 33 41 46 45 47 38 33 25 22 23 17 11 8 5 7 10 6 10 10 18 24 17 18 16 24 20 18
25 29 32 34 34 35 38 43 45 35 26 24 24 24 27 29 33 38 41 44 48 44 37 33 27 23 17 11 4 4 7 6 14 16 11 24 28 21 20 20 24 22 18
23 27 32 33 35 35 38 45 45 37 29 21 17 19 22 24 31 33 34 41 44 46 41 33 29 20 16 13 12 9 9 16 23 16 9 29 31 27 22 28 28 20 19
20 26 29 35 38 37 40 45 45 42 35 21 13 14 17 22 25 30 33 36 39 44 41 32 26 24 23 17 11 5 5 12 15 11 17 37 37 35 30 29 25 20 17
Wind_Direction_850mb
355 354 353 351 350 351 350 348 347 346 342 345 344 329 319 312 321 318 313 336 326 307 285 280 289 229 209 196 189 189 189 191 194 197 199 200 207 203 197 201 183 195 200
354 352 351 351 349 351 351 350 350 349 347 344 346 340 329 320 328 321 322 329 336 328 298 294 285 227 184 183 181 185 185 190 190 188 190 195 198 198 201 201 184 199 202
352 351 349 352 353 351 351 350 351 352 350 349 347 342 327 337 331 336 348 321 326 348 331 317 11 205 183 177 176 181 180 183 183 184 188 191 198 209 200 202 185 189 199
350 349 349 352 353 353 352 351 352 354 355 355 351 345 329 345 343 337 352 356 326 339 7 335 313 42 167 169 175 176 176 179 180 181 180 188 203 206 195 193 186 187 205
349 349 349 350 353 353 353 352 354 358 358 356 357 355 349 31 13 352 350 348 327 330 8 356 339 308 190 174 176 179 177 172 175 175 189 207 204 190 188 179 158 181 185
349 345 348 352 353 354 354 354 355 0 4 0 360 3 19 23 17 14 6 1 354 325 344 26 12 342 167 179 177 175 168 166 168 165 175 189 183 179 174 164 167 183 199
346 341 347 351 356 355 356 355 356 360 5 6 4 5 17 355 4 19 7 14 1 2 344 356 39 44 132 150 178 174 169 170 167 155 164 164 160 160 159 167 181 207 233
344 341 341 347 352 355 355 356 359 360 3 11 6 0 353 359 12 10 1 10 18 357 322 316 15 14 41 117 187 169 166 163 158 150 150 151 156 154 155 168 190 190 222
344 339 339 342 349 354 357 358 359 3 1 8 20 9 349 344 345 355 2 359 9 8 9 354 321 334 18 57 114 164 165 158 148 147 145 148 146 148 157 169 176 185 233
343 340 340 340 346 352 355 358 359 2 4 5 11 18 15 1 347 321 348 4 15 3 12 24 28 309 345 20 64 135 155 147 140 139 145 145 142 131 113 123 136 158 247
345 344 344 340 339 350 354 356 358 2 7 6 9 11 14 10 2 349 337 351 5 8 10 22 33 20 306 339 37 84 116 131 141 141 141 137 139 129 107 86 106 304 295
351 350 350 345 341 346 351 355 358 1 5 7 9 12 15 5 2 356 347 347 352 3 8 15 38 48 47 49 31 35 69 102 117 118 117 118 126 147 218 270 293 304 328
354 356 358 352 347 345 347 351 355 359 3 9 12 11 15 15 12 4 355 350 345 359 8 13 25 40 43 49 99 106 311 298 116 154 182 168 189 224 254 275 283 305 322
354 357 358 352 349 347 344 346 351 358 2 8 13 17 17 15 17 17 5 356 351 349 4 18 26 39 42 48 65 98 136 140 161 176 197 223 234 242 249 271 294 307 326
356 359 356 355 352 347 344 345 347 354 359 6 13 15 15 13 18 21 17 12 359 332 345 7 20 33 41 65 72 84 105 116 120 145 173 191 213 240 272 269 278 276 307
0 360 358 355 356 351 348 346 346 350 358 4 12 13 15 12 16 21 19 16 11 352 324 352 15 17 43 71 89 90 87 84 77 74 122 164 145 39 1 173 177 155 27
5 5 2 360 0 358 352 350 351 347 356 2 11 14 11 15 9 16 18 16 13 4 353 353 6 6 27 55 79 91 93 78 58 47 46 82 77 96 102 115 103 67 38
9 11 7 6 6 2 356 355 352 349 351 360 7 13 9 14 11 13 15 15 13 9 350 341 346 336 335 75 80 89 105 101 96 78 54 73 171 147 136 100 80 54 34
16 14 11 13 10 6 360 1 355 354 354 359 7 10 10 12 14 11 12 12 14 16 8 346 347 357 304 188 169 166 128 133 127 102 74 70 123 118 121 111 86 62 64
21 16 16 17 14 5 8 359 360 353 355 1 7 10 10 12 16 10 9 9 14 21 21 20 11 14 26 190 205 215 211 208 190 197 146 90 127 125 119 96 73 65 84
27 23 19 18 16 7 18 357 1 358 350 354 3 11 12 13 17 10 11 9 13 22 30 41 43 46 47 80 212 217 212 201 195 191 191 153 147 130 108 92 82 98 99
30 26 23 21 16 9 17 359 4 360 353 348 350 9 8 12 11 15 15 16 16 17 27 34 41 47 47 51 65 188 203 174 160 160 180 165 139 121 111 101 94 102 91
33 30 24 20 17 10 24 358 355 357 354 348 349 357 11 13 7 21 13 17 19 24 28 24 33 42 41 39 45 113 155 173 194 150 160 148 139 122 116 107 110 102 82
34 28 25 20 18 13 17 7 5 2 358 350 350 356 7 9 15 16 12 19 22 23 24 24 28 31 27 29 86 161 181 192 136 131 149 139 133 120 108 102 114 107 87
40 30 24 20 18 15 8 10 5 7 5 355 355 356 7 9 25 18 12 16 21 23 24 28 29 26 29 42 61 74 118 164 133 130 149 148 128 112 105 114 113 99 83
42 35 25 23 19 17 9 13 8 9 13 15 15 10 11 22 22 22 19 19 19 19 19 22 30 32 33 30 30 42 108 168 156 135 158 130 129 116 103 112 111 102 88